Home   Weather   Røst   Past weeks
Flag for Norway

Past Weather in Røst, Norway — Yesterday and Last 2 Weeks

Now
45 °F

Cool.


Feels Like: 40 °F
Forecast: 47 / 46 °F
Wind: 9 mph from North

Location: Rost Flyplass

Current Time: May 22, 2019 at 12:49:52 am

Latest Report: May 22, 2019 at 12:00 am


Visibility: N/A

Pressure: 29.99 "Hg

Humidity: 93%

Dew Point: 43 °F

Location of RøstLocation

Past Weather in Røst — Graph

°F

Røst Temperature Yesterday

Maximum temperature yesterday: 49 °F (at 1:00 pm)
Minimum temperature yesterday: 45 °F (at 2:00 am)
Average temperature yesterday: 47 °F

High & Low Weather Summary for the Past Weeks

 TemperatureHumidityPressure
High53 °F (May 20, 5:00 pm)100% (May 18, 1:00 am)30.49 "Hg (May 18, 1:00 am)
Low37 °F (May 7, 3:00 am)57% (May 10, 5:00 pm)29.55 "Hg (May 8, 1:00 pm)
Average44 °F83%30.07 "Hg
* Reported May 6 11:00 pm — May 21 11:00 pm, Røst. Weather by CustomWeather, © 2019

Note: Actual official high and low records may vary slightly from our data, if they occured in-between our weather recording intervals... More about our weather records

Advertising

Røst Weather History for the Previous 24 Hours

Scroll right to see more
 ConditionsComfort  
Time TempWeatherWind HumidityBarometerVisibility
11:00 pm
Tue, May 21
46 °FCool.10 mph92%29.99 "HgN/A
10:00 pm46 °FCool.9 mph92%30.00 "HgN/A
9:00 pm46 °FCool.9 mph91%30.00 "HgN/A
8:00 pm46 °FCool.8 mph89%30.00 "HgN/A
7:00 pm47 °FCool.9 mph89%30.00 "HgN/A
6:00 pm48 °FCool.8 mph88%30.01 "HgN/A
5:00 pm49 °FCool.7 mph85%30.01 "HgN/A
4:00 pm48 °FCool.7 mph85%30.02 "HgN/A
3:00 pm49 °FCool.8 mph85%30.02 "HgN/A
2:00 pm49 °FCool.7 mph85%30.02 "HgN/A
1:00 pm49 °FCool.7 mph85%30.03 "HgN/A
12:00 pm48 °FCool.7 mph86%30.03 "HgN/A
11:00 am48 °FCool.6 mph86%30.02 "HgN/A
10:00 am48 °FCool.7 mph89%30.01 "HgN/A
9:00 am47 °FCool.6 mph89%30.01 "HgN/A
8:00 am47 °FCool.3 mph89%30.01 "HgN/A
7:00 am47 °FCool.3 mph91%30.01 "HgN/A
6:00 am46 °FCool.5 mph92%30.01 "HgN/A
5:00 am46 °FCool.3 mph95%30.01 "HgN/A
4:00 am45 °FCool.3 mph96%30.01 "HgN/A
3:00 am45 °FCool.3 mph96%30.01 "HgN/A
2:00 am45 °FCool.2 mph94%30.01 "HgN/A
1:00 am46 °FCool.3 mph94%30.01 "HgN/A
12:00 am46 °FCool.5 mph93%30.01 "HgN/A
Weather by CustomWeather, © 2019

See weather overview